Flag for U.S.A. Weather past 2 weeks in Omaha, Nebraska, U.S.A.

Now
25 °F

Sunny.


Feels Like: 18 °F
Forecast: 24 / 44 °F
Wind: 6 mph from Southeast

Location: Millard Airport

Current Time: Jan 30, 2015 at 10:32:56 AM

Latest Report: Jan 30, 2015 at 10:15 AM


Visibility: 10 mi

Pressure: 30.54 "Hg

Humidity: 80%

Dew point: 20 °F

Location of OmahaLocation

Historic Weather in Omaha — Graph

°F

Omaha temperature yesterday

Maximum temperature yesterday: 41 °F (at 12:15 AM)
Minimum temperature yesterday: 26 °F (at 11:55 PM)
Average temperature yesterday: 36 °F

Past Weeks' High & Low Weather Summary

 TemperatureHumidityPressure
High61 °F (Jan 28, 3:55 PM)95% (Jan 26, 12:55 AM)30.55 "Hg (Jan 26, 12:55 AM)
Low17 °F (Jan 30, 7:35 AM)27% (Jan 18, 2:55 PM)29.60 "Hg (Jan 24, 10:15 PM)
Average38 °F69%30.03 "Hg
* Reported Jan 15 9:15 AM — Jan 30 9:15 AM, Omaha, Weather by CustomWeather, © 2014

Note: Actual official high and low records may vary slightly from our data, if they occured in-between our weather recording intervals... More about our weather records

Advertising

Omaha weather history for previous 24 hours

 ConditionsComfort  
Time TempWeatherWind HumidityBarometerVisibility
9:15 AM
Jan 30
22 °FSunny.3 mph88%30.54 "Hg10 mi
8:55 AM21 °FSunny.3 mph89%30.54 "Hg10 mi
8:35 AM20 °FSunny.No wind90%30.54 "Hg10 mi
8:15 AM18 °FSunny.No wind90%30.54 "Hg10 mi
7:55 AM17 °FSunny.No wind89%30.54 "Hg10 mi
7:35 AM17 °FClear.No wind89%30.53 "Hg10 mi
7:15 AM17 °FClear.No wind90%30.53 "Hg10 mi
6:55 AM17 °FClear.No wind90%30.53 "Hg10 mi
6:35 AM18 °FClear.No wind89%30.53 "Hg10 mi
6:15 AM18 °FClear.No wind91%30.53 "Hg10 mi
5:55 AM18 °FClear.No wind91%30.53 "Hg10 mi
5:35 AM18 °FClear.No wind91%30.53 "Hg10 mi
5:15 AM19 °FClear.No wind89%30.53 "Hg10 mi
4:55 AM19 °FClear.No wind90%30.53 "Hg10 mi
4:35 AM19 °FClear.No wind88%30.54 "Hg10 mi
4:15 AM20 °FClear.No wind90%30.54 "Hg10 mi
3:55 AM20 °FClear.No wind88%30.55 "Hg10 mi
3:15 AM21 °FClear.No wind87%30.55 "Hg10 mi
2:55 AM22 °FClear.No wind87%30.55 "Hg10 mi
2:35 AM23 °FClear.No wind87%30.55 "Hg10 mi
2:15 AM22 °FClear.No wind85%30.55 "Hg10 mi
1:55 AM24 °FClear.No wind85%30.55 "Hg10 mi
1:15 AM25 °FClear.No wind83%30.55 "Hg10 mi
12:55 AM25 °FClear.No wind83%30.54 "Hg10 mi
12:35 AM25 °FClear.No wind82%30.54 "Hg10 mi
12:15 AM27 °FClear.No wind79%30.55 "Hg10 mi
11:55 PM
Jan 29
26 °FClear.No wind81%30.55 "Hg10 mi
11:35 PM27 °FClear.No wind81%30.55 "Hg10 mi
11:15 PM28 °FClear.No wind77%30.55 "Hg10 mi
10:55 PM28 °FClear.No wind77%30.54 "Hg10 mi
10:30 PM29 °FClear.No wind74%30.53 "Hg10 mi
10:15 PM29 °FClear.5 mph73%30.54 "Hg10 mi
9:15 PM31 °FClear.5 mph72%30.54 "Hg10 mi
8:55 PM31 °FClear.5 mph72%30.53 "Hg10 mi
8:35 PM32 °FClear.No wind70%30.53 "Hg10 mi
8:15 PM32 °FClear.5 mph70%30.52 "Hg10 mi
7:55 PM32 °FClear.No wind71%30.51 "Hg10 mi
7:35 PM33 °FClear.7 mph70%30.51 "Hg10 mi
7:15 PM34 °FClear.8 mph68%30.51 "Hg10 mi
6:55 PM35 °FClear.7 mph66%30.50 "Hg10 mi
6:35 PM36 °FClear.6 mph64%30.50 "Hg10 mi
6:15 PM36 °FClear.6 mph64%30.49 "Hg10 mi
5:55 PM36 °FClear.9 mph63%30.48 "Hg10 mi
5:35 PM37 °FScattered clouds.8 mph60%30.48 "Hg10 mi
5:15 PM38 °FPartly sunny.12 mph60%30.47 "Hg10 mi
4:55 PM39 °FPartly sunny.15 mph58%30.46 "Hg10 mi
4:35 PM39 °FPartly sunny.10 mph57%30.46 "Hg10 mi
4:15 PM39 °FPartly sunny.9 mph57%30.45 "Hg10 mi
3:55 PM39 °FOvercast.16 mph56%30.45 "Hg10 mi
3:15 PM39 °FOvercast.12 mph57%30.44 "Hg10 mi
2:55 PM39 °FOvercast.10 mph58%30.43 "Hg10 mi
2:35 PM39 °FOvercast.16 mph59%30.42 "Hg10 mi
2:15 PM38 °FOvercast.15 mph60%30.42 "Hg10 mi
1:55 PM38 °FOvercast.18 mph60%30.42 "Hg10 mi
1:35 PM38 °FOvercast.15 mph60%30.42 "Hg10 mi
1:15 PM38 °FOvercast.14 mph61%30.41 "Hg10 mi
12:55 PM39 °FOvercast.13 mph60%30.41 "Hg10 mi
12:35 PM39 °FOvercast.17 mph59%30.41 "Hg10 mi
12:15 PM39 °FOvercast.17 mph59%30.41 "Hg10 mi
11:55 AM39 °FOvercast.15 mph62%30.41 "Hg10 mi
11:15 AM38 °FMore clouds than sun.16 mph61%30.41 "Hg10 mi
10:55 AM38 °FMore clouds than sun.15 mph62%30.40 "Hg10 mi
10:35 AM37 °FMostly cloudy.20 mph65%30.39 "Hg10 mi
10:15 AM37 °FOvercast.18 mph67%30.38 "Hg10 mi
Weather by CustomWeather, © 2014

See weather overviewHow to use our weather pages